Miscellaneous Local Product
Issued by NWS Hastings, NE

Home | Current Version | Previous Version | Graphics & Text | Print | Product List | Glossary On
Versions: 1 2 3 4 5 6 7 8 9 10 11 12 13 14 15 16 17 18 19 20 21 22 23 24 25 26 27 28 29 30 31 32 33 34 35 36 37 38 39 40 41 42 43 44 45 46 47 48 49 50
139
AXUS43 KGID 191002
MISGRI

GID CWA HOURLY WEATHER ROUNDUP
NATIONAL WEATHER SERVICE HASTINGS NE
500 AM CDT THU APR 19 2018

NOTE: "FAIR" INDICATES FEW OR NO CLOUDS BELOW 12,000 FEET WITH NO
SIGNIFICANT WEATHER AND/OR OBSTRUCTIONS TO VISIBILITY.

...SOUTH CENTRAL NEBRASKA...

CITY           SKY/WX    TMP DP  RH WIND       PRES   REMARKS
GRAND ISLAND   CLEAR     28  26  92 NW6       30.35R WCI  22
KEARNEY        CLEAR     26  24  92 NW6       30.36R WCI  19
HASTINGS       CLEAR     28  26  92 N6        30.35R WCI  22
ORD            FAIR      26  25  96 N8        30.34R WCI  18
YORK             N/A     28  28 100 NW6       30.35R WCI  22
AURORA         CLEAR     30  29  98 N7        30.35R WCI  23
LEXINGTON      FAIR      28  25  89 NW6       30.37R WCI  21
HOLDREGE       CLEAR     29  27  95 NW7       30.37R WCI  21
HEBRON         CLEAR     31  29  92 NW5       30.36R WCI  26

...NEBRASKA PANHANDLE...

CITY           SKY/WX    TMP DP  RH WIND       PRES   REMARKS
CHADRON        FAIR      27  25  92 CALM      30.32R
ALLIANCE       FAIR      29  28  96 S5        30.31R WCI  24
SCOTTSBLUFF    FAIR      29  27  92 E6        30.31R WCI  23
SIDNEY         FAIR      27  24  89 SE8       30.31S WCI  19

...WESTERN AND NORTH CENTRAL NEBRASKA...

CITY           SKY/WX    TMP DP  RH WIND       PRES   REMARKS
VALENTINE      FAIR      26  24  92 CALM      30.35S
AINSWORTH      FAIR      27  27 100 W6        30.36R WCI  21
ONEILL         FAIR      32  30  93 NW7       30.36R WCI  26
BROKEN BOW     FAIR      27  24  89 NW5       30.35R WCI  22
IMPERIAL       FAIR      30  28  92 S3        30.36R
NORTH PLATTE   FAIR      26  23  88 CALM      30.37R
MCCOOK         FAIR      27  25  92 NW6       30.37R WCI  20

...EASTERN NEBRASKA...

CITY           SKY/WX    TMP DP  RH WIND       PRES   REMARKS
NORFOLK        CLEAR     28  28 100 W5        30.35R WCI  23
SO SIOUX CITY  CLEAR     30  27  88 NW8       30.35R WCI  22
TEKAMAH        CLEAR     29  27  92 NW5       30.34R WCI  24
COLUMBUS       CLEAR     29  27  92 W7        30.36R WCI  22
ALBION         CLEAR     29  28  95 NW8       30.36R WCI  21
OMAHA EPPLEY   CLEAR     28  27  96 N6        30.34R WCI  22
OFFUTT AFB     CLEAR     28  26  92 NW6       30.32R WCI  21
MILLARD        CLEAR     33  30  88 NW7       30.34R WCI  27
LINCOLN        CLEAR     33  29  85 NW7       30.36R WCI  27
NEBRASKA CITY  CLEAR     29  29 100 W6        30.33R WCI  23
BEATRICE       CLEAR     28  26  91 N8        30.35R WCI  20
FALLS CITY     CLEAR     30  26  85 NW6       30.33R WCI  24

...NORTHERN KANSAS...

CITY           SKY/WX    TMP DP  RH WIND       PRES   REMARKS
GOODLAND       FAIR      27  21  78 S8        30.34R WCI  19
HILL CITY      CLOUDY    28  25  88 NW6       30.39R WCI  22
NORTON         SUNNY     27  23  86 CALM      30.37R
PHILLIPSBURG   CLEAR     27  27 100 W9        30.39R WCI  17
SMITH CENTER   CLEAR     21  19  93 NW5       30.38R WCI  15
BELOIT         CLEAR     23  19  86 CALM      30.38R
HAYS           CLOUDY    30  25  81 NW7       30.38R WCI  23
RUSSELL        PTCLDY    30  28  92 NW9       30.36R WCI  22
CONCORDIA      PTCLDY    30  26  85 W8        30.35R WCI  22
SALINA         CLOUDY    33  28  81 W9        30.37R WCI  25
TOPEKA         CLOUDY    37  29  72 W6        30.32R WCI  32



USA.gov is the U.S. government's official web portal to all federal, state and local government web resources and services.